When you browse on this site, cookies collect data to enhance your experience and personalize the content and advertising you see.
Visit our Privacy Policy to learn more. By continuing to use the site, you agree to this use of cookies and data.
  • En España
  • Lista de países
  • Para 7 días
  • Temperatura del agua
  • El tiempo en el mapa
  • Informadores
  • user-avatar
    Iniciar sesión

    Tiempo cada hora Bobo-Dioulasso

    Hoy, 21 Febrero, Viernes

    Tiempo Temperatura Precipitaciones Viento Presión Humedad
    00:00 +28°C° 0 mm 2 mps 721 mmHg 17%
    01:00 +27°C° 0 mm 2 mps 721 mmHg 17%
    02:00 +26°C° 0 mm 2 mps 720 mmHg 17%
    03:00 +25°C° 0 mm 2 mps 720 mmHg 17%
    04:00 +24°C° 0 mm 2 mps 720 mmHg 17%
    05:00 +23°C° 0 mm 2 mps 720 mmHg 18%
    06:00 +23°C° 0 mm 2 mps 720 mmHg 18%
    13:00 +40°C° 0 mm 3 mps 721 mmHg 7%
    14:00 +42°C° 0 mm 3 mps 721 mmHg 7%
    15:00 +43°C° 0 mm 3 mps 720 mmHg 7%
    16:00 +40°C° 0 mm 2 mps 720 mmHg 8%
    17:00 +39°C° 0 mm 1 mps 720 mmHg 9%
    18:00 +36°C° 0 mm 1 mps 719 mmHg 10%
    19:00 +34°C° 0 mm 1 mps 720 mmHg 11%
    20:00 +32°C° 0 mm 1 mps 721 mmHg 13%
    21:00 +30°C° 0 mm 1 mps 721 mmHg 14%
    22:00 +29°C° 0 mm 1 mps 721 mmHg 14%
    23:00 +28°C° 0 mm 1 mps 721 mmHg 15%

    Mañana, 22 Febrero, Sábado

    Tiempo Temperatura Precipitaciones Viento Presión Humedad
    00:00 +28°C° 0 mm 1 mps 721 mmHg 15%
    01:00 +27°C° 0 mm 1 mps 721 mmHg 15%
    02:00 +26°C° 0 mm 1 mps 721 mmHg 15%
    03:00 +25°C° 0 mm 2 mps 720 mmHg 15%
    04:00 +25°C° 0 mm 2 mps 721 mmHg 15%
    05:00 +24°C° 0 mm 2 mps 721 mmHg 15%
    06:00 +24°C° 0 mm 2 mps 721 mmHg 15%
    07:00 +26°C° 0 mm 2 mps 722 mmHg 13%
    08:00 +28°C° 0 mm 3 mps 723 mmHg 12%
    09:00 +30°C° 0 mm 3 mps 724 mmHg 11%
    10:00 +34°C° 0 mm 3 mps 723 mmHg 9%
    11:00 +36°C° 0 mm 4 mps 723 mmHg 8%
    12:00 +40°C° 0 mm 4 mps 723 mmHg 7%
    13:00 +41°C° 0 mm 4 mps 722 mmHg 6%
    14:00 +42°C° 0 mm 3 mps 721 mmHg 6%
    15:00 +43°C° 0 mm 3 mps 721 mmHg 6%
    16:00 +40°C° 0 mm 2 mps 720 mmHg 7%
    17:00 +39°C° 0 mm 2 mps 720 mmHg 8%
    18:00 +36°C° 0 mm 1 mps 720 mmHg 8%
    19:00 +34°C° 0 mm 1 mps 721 mmHg 9%
    20:00 +32°C° 0 mm 1 mps 721 mmHg 10%
    21:00 +30°C° 0 mm 1 mps 722 mmHg 11%
    22:00 +29°C° 0 mm 1 mps 722 mmHg 12%
    23:00 +29°C° 0 mm 1 mps 722 mmHg 12%

    Pasado mañana, 23 Febrero, Domingo

    Tiempo Temperatura Precipitaciones Viento Presión Humedad
    00:00 +28°C° 0 mm 1 mps 722 mmHg 12%
    01:00 +27°C° 0 mm 1 mps 722 mmHg 13%
    02:00 +26°C° 0 mm 1 mps 721 mmHg 13%
    03:00 +25°C° 0 mm 1 mps 721 mmHg 14%
    04:00 +25°C° 0 mm 2 mps 721 mmHg 14%
    05:00 +24°C° 0 mm 2 mps 721 mmHg 15%
    06:00 +24°C° 0 mm 2 mps 722 mmHg 16%
    07:00 +26°C° 0 mm 3 mps 723 mmHg 14%
    08:00 +28°C° 0 mm 3 mps 723 mmHg 13%
    09:00 +32°C° 0 mm 4 mps 724 mmHg 12%
    10:00 +34°C° 0 mm 4 mps 724 mmHg 11%
    11:00 +37°C° 0 mm 4 mps 724 mmHg 9%
    12:00 +40°C° 0 mm 4 mps 724 mmHg 8%
    13:00 +41°C° 0 mm 4 mps 723 mmHg 8%
    14:00 +42°C° 0 mm 4 mps 722 mmHg 7%
    15:00 +43°C° 0 mm 4 mps 721 mmHg 7%
    16:00 +42°C° 0 mm 3 mps 721 mmHg 8%
    17:00 +39°C° 0 mm 3 mps 721 mmHg 8%
    18:00 +38°C° 0 mm 2 mps 721 mmHg 9%
    19:00 +36°C° 0 mm 2 mps 722 mmHg 10%
    20:00 +34°C° 0 mm 2 mps 722 mmHg 11%
    21:00 +30°C° 0 mm 2 mps 723 mmHg 12%
    22:00 +30°C° 0 mm 2 mps 723 mmHg 13%
    23:00 +29°C° 0 mm 2 mps 723 mmHg 13%

    24 Febrero, Lunes

    Tiempo Temperatura Precipitaciones Viento Presión Humedad
    00:00 +28°C° 0 mm 2 mps 723 mmHg 14%
    01:00 +28°C° 0 mm 2 mps 723 mmHg 14%
    02:00 +27°C° 0 mm 2 mps 722 mmHg 13%
    03:00 +26°C° 0 mm 3 mps 722 mmHg 13%
    04:00 +26°C° 0 mm 3 mps 722 mmHg 12%
    05:00 +25°C° 0 mm 3 mps 722 mmHg 12%
    06:00 +25°C° 0 mm 3 mps 722 mmHg 11%
    07:00 +27°C° 0 mm 4 mps 723 mmHg 10%
    08:00 +29°C° 0 mm 5 mps 724 mmHg 9%
    09:00 +33°C° 0 mm 6 mps 724 mmHg 8%
    10:00 +35°C° 0 mm 6 mps 724 mmHg 8%
    11:00 +38°C° 0 mm 6 mps 724 mmHg 7%
    12:00 +40°C° 0 mm 5 mps 724 mmHg 6%
    13:00 +41°C° 0 mm 5 mps 723 mmHg 6%
    14:00 +41°C° 0 mm 5 mps 722 mmHg 6%
    15:00 +42°C° 0 mm 4 mps 721 mmHg 6%
    16:00 +41°C° 0 mm 4 mps 721 mmHg 6%
    17:00 +38°C° 0 mm 3 mps 721 mmHg 7%
    18:00 +37°C° 0 mm 2 mps 721 mmHg 7%
    19:00 +35°C° 0 mm 2 mps 721 mmHg 8%
    20:00 +31°C° 0 mm 2 mps 722 mmHg 9%
    21:00 +29°C° 0 mm 2 mps 722 mmHg 10%
    22:00 +28°C° 0 mm 3 mps 722 mmHg 11%
    23:00 +28°C° 0 mm 3 mps 722 mmHg 11%

    25 Febrero, Martes

    Tiempo Temperatura Precipitaciones Viento Presión Humedad
    00:00 +27°C° 0 mm 3 mps 723 mmHg 11%
    01:00 +27°C° 0 mm 3 mps 722 mmHg 12%
    02:00 +26°C° 0 mm 3 mps 722 mmHg 12%
    03:00 +25°C° 0 mm 3 mps 722 mmHg 12%
    04:00 +25°C° 0 mm 3 mps 722 mmHg 13%
    05:00 +24°C° 0 mm 3 mps 722 mmHg 13%
    06:00 +24°C° 0 mm 3 mps 722 mmHg 14%
    07:00 +26°C° 0 mm 4 mps 723 mmHg 12%
    08:00 +27°C° 0 mm 5 mps 724 mmHg 11%
    09:00 +29°C° 0 mm 6 mps 725 mmHg 10%
    10:00 +32°C° 0 mm 6 mps 724 mmHg 9%
    11:00 +35°C° 0 mm 5 mps 724 mmHg 8%
    12:00 +37°C° 0 mm 5 mps 724 mmHg 7%
    13:00 +37°C° 0 mm 5 mps 723 mmHg 6%
    14:00 +38°C° 0 mm 4 mps 722 mmHg 6%
    15:00 +40°C° 0 mm 4 mps 721 mmHg 6%
    16:00 +38°C° 0 mm 3 mps 721 mmHg 6%
    17:00 +36°C° 0 mm 3 mps 721 mmHg 7%
    18:00 +35°C° 0 mm 2 mps 721 mmHg 7%
    19:00 +32°C° 0 mm 2 mps 721 mmHg 8%
    20:00 +29°C° 0 mm 2 mps 722 mmHg 9%
    21:00 +27°C° 0 mm 2 mps 722 mmHg 10%
    22:00 +26°C° 0 mm 2 mps 722 mmHg 10%
    23:00 +25°C° 0 mm 2 mps 722 mmHg 10%

    26 Febrero, Miércoles

    Tiempo Temperatura Precipitaciones Viento Presión Humedad
    00:00 +24°C° 0 mm 2 mps 722 mmHg 10%
    01:00 +23°C° 0 mm 2 mps 722 mmHg 10%
    02:00 +23°C° 0 mm 2 mps 721 mmHg 10%
    03:00 +21°C° 0 mm 2 mps 721 mmHg 10%
    04:00 +20°C° 0 mm 2 mps 721 mmHg 10%
    05:00 +20°C° 0 mm 2 mps 721 mmHg 11%
    06:00 +19°C° 0 mm 2 mps 721 mmHg 11%
    07:00 +23°C° 0 mm 2 mps 722 mmHg 10%
    08:00 +25°C° 0 mm 3 mps 722 mmHg 9%
    09:00 +28°C° 0 mm 3 mps 723 mmHg 9%
    10:00 +31°C° 0 mm 3 mps 723 mmHg 8%
    11:00 +35°C° 0 mm 3 mps 723 mmHg 7%
    12:00 +37°C° 0 mm 3 mps 723 mmHg 6%
    13:00 +39°C° 0 mm 2 mps 722 mmHg 5%
    14:00 +40°C° 0 mm 2 mps 721 mmHg 5%
    15:00 +41°C° 0 mm 1 mps 720 mmHg 4%
    16:00 +39°C° 0 mm 1 mps 720 mmHg 5%
    17:00 +36°C° 0 mm 1 mps 720 mmHg 6%
    18:00 +34°C° 0 mm 1 mps 720 mmHg 6%
    19:00 +32°C° 0 mm 1 mps 721 mmHg 7%
    20:00 +30°C° 0 mm 1 mps 721 mmHg 8%
    21:00 +28°C° 0 mm 1 mps 721 mmHg 8%
    22:00 +27°C° 0 mm 1 mps 721 mmHg 9%
    23:00 +26°C° 0 mm 1 mps 721 mmHg 9%
    Mostrar más